Location: Betpouey
(42.8833°N, 0.0333°E)
Time: 05:53:40
(UTC+00:00)

Meteor 2-13 Rocket - Pass Details

Date: 01 July 2021
Orbit: 935 x 958 km, 82.5° (Epoch: 26 July)

Event Time Altitude Azimuth Distance (km) Brightness Sun altitude
Exits shadow 23:58:46 39° 228° (SW) 1,410 5.0 -24.0°
Maximum altitude 00:00:47 55° 282° (WNW) 1,144 4.9 -24.0°
Drops below altitude 10° 00:06:50 10° 360° (N) 2,694 7.9 -24.0°
Sets 00:09:25 0° 5° (N) 3,641 8.9 -24.0°
